Weather History for Lancaster, PA

Change the Weather History Date:

Monday, November 7, 2011

  Actual Average Record
Temperature  
Mean Temperature 48 °F -  
Max Temperature 62 °F 54 °F 69 °F (1980)
Min Temperature 33 °F 36 °F 24 °F (1982)
Degree Days  
Heating Degree Days 18    
Moisture  
Dew Point 38 °F    
Average Humidity 82    
Maximum Humidity 100    
Minimum Humidity 44    
Precipitation  
Precipitation 0.00 in - - ()
Sea Level Pressure  
Sea Level Pressure 30.35 in    
Wind  
Wind Speed 2 mph (West)    
Max Wind Speed 6 mph    
Max Gust Speed -    
Visibility 4 miles    
Events Fog    
Averages and records for this station are not official NWS values.
T = Trace of Precipitation, MM = Missing Value Source: NWS Daily Summary

Daily Weather History Graph

Daily Weather History Graph

Search for Another Location

Airport:

Trip Planner

Search our weather history database for the weather conditions in past years. The results will help you decide how hot, cold, wet, or windy it might be!

Date:

Astronomy

Nov. 07, 2011 Rise Set
Actual Time 6:41 AM EST 4:56 PM EST
Civil Twilight 6:12 AM EST 5:24 PM EST
Nautical Twilight 5:40 AM EST 5:56 PM EST
Astronomical Twilight 5:08 AM EST 6:28 PM EST
Moon 3:06 PM EST (11/7) 3:41 AM EST (11/7)
Length of Visible Light 11h 12m
Length of Day
10h 15m
Waxing Gibbous, 91% of the Moon is Illuminated
Nov 7
Waxing Gibbous
Nov 10
Full
Nov 18
Last Quarter
Nov 25
New
Dec 2
First Quarter

Hourly Weather History & Observations

Time (EST) Temp. Windchill Dew Point Humidity Pressure Visibility Wind Dir Wind Speed Gust Speed Precip Events Conditions
12:53 AM 36.0 °F 33.3 °F 35.1 °F 97% 30.38 in 5.0 mi East 3.5 mph - N/A   Clear
1:53 AM 37.0 °F - 35.1 °F 93% 30.38 in 6.0 mi Calm Calm - N/A   Clear
3:53 AM 37.0 °F - 35.1 °F 93% 30.37 in 4.0 mi Calm Calm - N/A   Clear
4:03 AM 33.8 °F - 33.8 °F 100% 30.36 in 1.0 mi Calm Calm - N/A   Clear
4:10 AM 35.6 °F - 33.8 °F 93% 30.37 in 3.0 mi Calm Calm - N/A   Clear
4:53 AM 33.1 °F - 30.9 °F 92% 30.38 in 3.0 mi Calm Calm - N/A   Clear
5:53 AM 33.1 °F - 30.9 °F 92% 30.38 in 3.0 mi Calm Calm - N/A   Partly Cloudy
6:32 AM 33.8 °F - 30.2 °F 87% 30.37 in 1.5 mi Calm Calm - N/A   Mostly Cloudy
6:36 AM 33.8 °F - 32.0 °F 93% 30.37 in 0.5 mi Calm Calm - N/A Fog Fog
6:43 AM 33.8 °F - 32.0 °F 93% 30.37 in 0.2 mi Calm Calm - N/A Fog Fog
6:53 AM 33.1 °F - 32.0 °F 96% 30.38 in 0.2 mi Calm Calm - N/A Fog Fog
7:12 AM 33.8 °F - 32.0 °F 93% 30.38 in 0.2 mi Calm Calm - N/A Fog Fog
8:53 AM 37.9 °F - 37.0 °F 97% 30.40 in 0.2 mi Calm Calm - N/A Fog Fog
9:45 AM 42.8 °F 41.1 °F 41.0 °F 93% 30.38 in 0.5 mi West 3.5 mph - N/A Fog Fog
10:00 AM 42.8 °F 40.1 °F 41.0 °F 93% 30.38 in 0.5 mi WNW 4.6 mph - N/A Fog Fog
10:19 AM 44.6 °F 42.2 °F 42.8 °F 93% 30.37 in 2.0 mi WSW 4.6 mph - N/A   Mostly Cloudy
10:27 AM 44.6 °F 42.2 °F 42.8 °F 93% 30.37 in 3.0 mi West 4.6 mph - N/A   Scattered Clouds
10:53 AM 48.0 °F - 43.0 °F 83% 30.38 in 4.0 mi West 3.5 mph - N/A   Haze
11:53 AM 54.0 °F - 43.0 °F 66% 30.36 in 7.0 mi WNW 5.8 mph - N/A   Clear
12:53 PM 57.9 °F - 43.0 °F 58% 30.33 in 8.0 mi West 4.6 mph - N/A   Clear
1:53 PM 60.1 °F - 41.0 °F 49% 30.30 in 10.0 mi Variable 3.5 mph - N/A   Clear
2:53 PM 62.1 °F - 39.9 °F 44% 30.28 in 10.0 mi West 3.5 mph - N/A   Clear
3:53 PM 61.0 °F - 42.1 °F 50% 30.29 in 10.0 mi WNW 3.5 mph - N/A   Clear
4:53 PM 60.1 °F - 39.9 °F 47% 30.29 in 10.0 mi Calm Calm - N/A   Clear
6:53 PM 52.0 °F - 41.0 °F 66% 30.30 in 9.0 mi Calm Calm - N/A   Clear
7:53 PM 50.0 °F - 39.9 °F 68% 30.31 in 9.0 mi Calm Calm - N/A   Clear
9:53 PM 45.0 °F - 39.9 °F 82% 30.31 in 7.0 mi Calm Calm - N/A   Clear
10:53 PM 45.0 °F - 41.0 °F 86% 30.31 in 6.0 mi Calm Calm - N/A   Clear
11:53 PM 45.0 °F - 39.9 °F 82% 30.30 in 7.0 mi Calm Calm - N/A   Clear